RH
79 79 82 83 82 80 80 81 82 82 80 79 84 86 90 86 70 71 72 68 74 76 77 78 78 79 80 78 81 84 82 79 77
77 79 78 82 82 80 80 82 83 82 80 81 86 88 91 69 71 72 68 66 73 75 77 78 78 76 76 80 80 80 81 80 78
71 77 77 79 79 80 80 82 83 81 83 84 86 89 88 70 71 70 69 78 72 74 78 79 79 78 76 77 78 78 79 79 78
64 74 76 77 78 81 81 81 80 78 84 88 91 93 94 71 70 68 63 79 70 74 76 78 79 79 79 79 79 80 81 80 79
76 82 78 77 80 82 81 81 81 83 88 89 93 94 91 72 73 69 66 81 73 75 76 77 78 80 83 83 83 84 83 81 81
67 82 83 84 84 84 80 84 84 91 92 92 94 89 74 72 71 66 83 78 71 75 79 78 76 81 83 84 84 82 80 82 80
69 78 88 84 83 84 82 87 90 88 82 77 88 76 73 76 76 70 83 74 73 75 79 79 78 81 79 79 79 76 76 78 80
67 66 65 71 86 79 84 80 83 86 88 83 86 86 81 77 77 83 88 79 74 76 80 80 80 81 79 78 76 74 73 73 76
71 69 70 74 81 86 86 86 85 87 86 87 89 88 87 88 85 83 95 83 80 79 80 81 80 80 77 76 75 75 74 72 71
73 71 72 75 75 74 86 86 87 87 87 86 87 88 86 84 88 89 94 91 84 77 75 78 77 76 74 74 74 76 76 77 74
73 70 73 76 79 78 77 79 86 87 85 85 83 83 80 80 80 77 82 93 90 85 78 75 75 72 72 73 75 75 76 78 77
73 69 72 76 81 82 80 80 83 85 81 81 76 78 78 73 80 81 80 78 91 90 90 80 78 74 75 72 73 74 72 71 73
70 67 70 75 82 79 79 79 80 82 82 82 78 77 75 74 75 76 72 74 78 85 92 92 85 80 76 74 76 77 78 78 79
65 64 67 76 83 81 78 79 73 80 80 78 78 76 76 72 67 70 69 73 75 78 88 90 93 88 76 73 73 74 75 73 75
64 64 65 76 83 82 84 79 75 74 76 70 76 76 74 72 66 65 62 67 73 75 78 85 85 92 82 75 72 74 75 77 76
62 62 65 77 83 82 82 82 76 82 75 77 77 78 74 71 63 61 62 63 64 68 74 75 84 83 89 81 75 74 72 73 74
62 62 66 75 84 85 83 79 80 80 76 79 76 82 72 69 63 61 60 63 60 62 68 73 77 78 81 87 85 79 75 74 73
65 64 67 74 83 86 84 80 77 79 83 75 64 77 67 68 67 65 60 59 58 56 60 69 72 76 78 82 82 83 79 72 70
67 67 67 73 81 86 84 79 77 75 81 79 70 72 64 63 69 66 63 62 56 57 52 58 67 71 76 81 84 80 77 69 67
64 65 66 70 79 84 84 84 79 74 73 72 78 70 70 67 60 63 66 64 61 58 54 50 56 66 70 70 77 78 68 63 64
Wind_Speed
5 6 6 6 7 8 9 10 10 10 10 10 12 12 11 7 8 7 8 9 11 12 12 12 12 13 12 12 12 12 13 12 13
4 5 4 5 6 7 8 10 11 10 9 10 11 11 9 7 7 6 6 8 10 11 11 12 12 11 12 13 12 12 12 12 12
5 5 4 4 5 6 8 10 11 9 10 12 11 10 7 6 7 6 5 8 9 10 10 10 11 11 12 12 11 11 11 11 10
6 7 6 6 5 7 8 11 11 8 11 12 11 10 9 7 5 5 4 7 9 10 9 10 10 10 10 11 11 11 11 10 10
5 6 2 8 7 8 11 12 9 11 12 11 11 10 8 7 6 5 4 9 9 9 9 10 11 11 10 11 11 11 11 9 10
4 7 6 5 7 10 12 13 12 14 12 11 11 7 5 6 5 4 6 8 7 8 9 12 11 13 13 12 13 13 11 12 11
3 4 6 10 7 10 13 14 12 7 5 5 7 4 6 5 5 4 6 5 8 5 9 11 11 14 14 13 13 11 12 12 12
2 2 1 3 7 7 8 7 4 7 5 5 5 5 5 4 5 10 9 8 7 5 8 9 10 12 14 14 11 10 11 11 11
1 0 2 2 2 5 5 4 7 7 7 6 6 6 5 4 4 9 16 8 8 8 6 9 12 13 15 14 9 9 9 9 9
3 3 2 1 1 3 4 5 6 6 6 6 7 6 6 7 4 4 17 18 14 11 4 9 11 14 14 10 7 7 7 6 6
3 3 3 3 2 3 4 5 6 6 6 7 7 6 5 6 6 5 7 18 19 20 11 3 8 12 13 9 8 8 8 8 6
4 3 3 3 4 5 5 6 7 6 6 7 6 5 6 6 6 5 4 5 15 20 19 10 3 8 11 11 11 12 11 10 9
4 4 3 4 5 5 6 6 6 5 6 5 5 5 5 6 6 5 4 4 5 9 14 16 15 7 9 11 14 16 16 16 16
4 3 4 5 5 5 6 5 6 6 6 6 5 4 5 5 4 5 5 6 5 3 8 12 16 15 6 11 15 15 14 15 14
4 3 4 5 5 5 5 6 4 6 7 6 5 5 4 4 4 4 4 5 6 6 5 4 6 14 9 8 11 14 13 15 15
6 4 5 5 6 8 8 5 8 4 5 5 3 3 4 4 3 2 3 4 5 5 4 3 3 4 10 9 7 14 13 14 15
5 6 6 7 6 7 8 8 5 3 5 3 3 2 2 2 1 1 2 4 3 3 4 4 4 3 3 7 8 9 14 14 13
5 6 6 7 7 8 10 9 9 6 4 3 3 4 4 3 2 1 1 2 2 2 3 4 4 4 3 5 7 8 12 12 10
5 6 6 7 6 8 9 8 7 8 9 3 2 0 2 3 4 2 2 1 2 1 1 1 2 3 2 4 6 5 8 10 9
5 5 6 6 6 7 9 10 8 7 9 7 4 2 1 2 2 3 4 3 3 3 2 1 1 1 2 2 3 2 6 8 8
Wind_Direction
118 88 83 86 93 94 96 94 90 84 82 88 94 91 84 81 84 82 89 93 97 96 98 104 101 102 101 102 103 105 97 91 83
152 126 111 107 113 110 104 97 91 83 77 99 98 90 80 92 86 88 94 96 104 105 105 106 108 106 104 108 106 107 103 91 79
180 175 157 154 140 125 114 105 94 85 92 106 97 86 83 91 87 85 92 108 105 103 100 103 108 113 113 112 107 102 98 96 87
178 178 173 174 166 140 134 106 91 106 104 101 95 84 69 88 84 82 87 105 112 113 106 102 103 110 113 111 107 100 97 94 91
155 87 153 197 164 147 114 98 111 109 103 100 85 78 72 82 81 83 93 90 107 115 120 110 106 100 103 107 106 96 86 91 91
85 56 30 208 186 139 119 109 108 94 86 88 76 77 82 81 73 80 83 94 101 115 117 111 115 106 100 99 102 91 88 86 88
7 63 50 50 94 130 120 109 108 106 103 94 68 79 82 67 55 41 55 88 112 108 119 121 118 113 108 98 89 93 86 84 83
44 318 84 62 64 110 109 118 112 90 91 85 76 65 67 70 60 25 20 74 97 113 119 123 123 127 117 107 95 86 83 81 83
133 275 27 10 75 100 109 111 96 95 91 91 86 70 62 45 59 37 19 68 90 100 132 133 127 121 109 93 96 85 81 79 78
156 166 181 182 62 104 99 99 100 100 93 86 89 76 63 53 47 50 28 45 51 56 91 143 135 124 105 111 100 85 74 75 81
162 157 167 167 164 137 139 136 118 107 105 92 86 76 66 58 53 57 40 48 53 50 27 146 141 119 122 122 102 91 81 75 80
166 159 167 162 153 137 130 122 111 106 97 91 84 72 59 57 38 38 20 52 47 53 39 40 121 132 134 116 104 95 91 81 76
172 169 175 161 157 151 147 144 127 118 105 97 76 73 70 59 42 37 36 38 52 43 43 39 38 105 117 111 103 93 89 81 70
181 179 165 168 163 164 155 144 143 134 109 97 78 67 60 55 58 50 47 47 62 55 37 27 33 32 123 127 109 100 93 88 81
183 181 173 173 169 167 158 157 140 128 118 101 80 59 56 54 46 38 48 49 57 51 35 12 19 26 53 105 124 110 104 91 87
186 185 180 182 185 180 162 138 133 100 122 115 101 75 57 56 46 40 52 48 47 52 50 42 31 15 31 62 105 121 113 97 83
189 189 190 189 181 178 174 165 140 110 178 125 96 174 185 176 93 66 65 59 49 49 44 53 52 31 38 35 73 115 114 101 95
199 196 192 191 192 188 186 182 173 152 177 162 177 163 213 152 169 161 117 89 76 60 31 33 28 26 25 34 45 90 102 97 92
199 200 200 198 196 194 191 188 179 168 175 165 210 314 137 175 170 206 204 201 194 171 95 39 29 16 20 17 22 39 108 113 91
203 202 199 205 203 206 193 187 185 185 177 186 162 174 136 123 151 160 182 219 208 203 201 190 203 22 20 24 358 57 130 112 106